User: anonymous   Login
Location: San Antonio
(29.4240°N, 98.4930°W)
Time: 07:37:03
(UTC-05:00)
Language:

SR - Orbit

View from above orbital plane
View from above orbital plane
View from above satellite
View from above satellite

Ground track
Ground track

The orbit data is extracted from the following two-line orbital elements,

1 00046U 60007B   24200.87876672  .00003350  00000-0  66556-3 0  9994
2 00046  66.6922 328.9231 0194329  97.6848 264.6377 14.52150400355494
Epoch (UTC): 18 July 2024 21:05:25
Eccentricity: 0.0194329
inclination: 66.6922°
perigee height: 581 km
apogee height: 856 km
right ascension of ascending node: 328.9231°
argument of perigee: 97.6848°
revolutions per day: 14.52150400
mean anomaly at epoch: 264.6377°
orbit number at epoch: 35549

The dashed part of the orbit path shows where the satellite is in the earth's shadow,  

DLR